Flag for U.S.A. Weather past 2 weeks in Sedona, Arizona, U.S.A.

Now
45 °F

Low clouds.


Feels Like: 41 °F
Forecast: 44 / 48 °F
Wind: 6 mph from South

Location: Sedona Airport

Current Time: Mar 1, 2015 at 12:51:23 PM

Latest Report: Mar 1, 2015 at 12:15 PM


Visibility: 10 mi

Pressure: 30.03 "Hg

Humidity: 93%

Dew point: 43 °F

Location of SedonaLocation

Historic Weather in Sedona — Graph

°F

Sedona temperature yesterday

Maximum temperature yesterday: 50 °F (at 12:35 PM)
Minimum temperature yesterday: 43 °F (at 5:55 AM)
Average temperature yesterday: 45 °F

Past Weeks' High & Low Weather Summary

 TemperatureHumidityPressure
High72 °F (Feb 14, 4:15 PM)100% (Feb 23, 12:55 AM)30.29 "Hg (Feb 23, 12:55 AM)
Low34 °F (Feb 25, 7:15 AM)11% (Feb 16, 7:55 PM)29.69 "Hg (Feb 27, 4:35 PM)
Average50 °F49%30.01 "Hg
* Reported Feb 14 11:15 AM — Mar 1 11:55 AM, Sedona, Weather by CustomWeather, © 2015

Note: Actual official high and low records may vary slightly from our data, if they occured in-between our weather recording intervals... More about our weather records

Advertising

Sedona weather history for previous 24 hours

 ConditionsComfort  
Time TempWeatherWind HumidityBarometerVisibility
11:55 AM
Sun, Mar 1
43 °FMostly cloudy.3 mph100%30.04 "Hg10 mi
11:35 AM41 °FLight rain. Overcast.6 mph100%30.04 "Hg10 mi
11:15 AM41 °FLight rain. Overcast.6 mph93%30.05 "Hg7 mi
10:55 AM41 °FLight rain. Overcast.10 mph87%30.04 "Hg10 mi
10:35 AM41 °FLight rain. Mostly cloudy.13 mph87%30.05 "Hg7 mi
10:15 AM41 °FRain. Mostly cloudy.12 mph93%30.04 "Hg5 mi
9:55 AM41 °FRain. Mostly cloudy.No wind93%30.04 "Hg2 mi
9:35 AM41 °FRain. Mostly cloudy.7 mph93%30.04 "Hg7 mi
9:15 AM39 °FRain. Mostly cloudy.13 mph93%30.02 "Hg7 mi
8:55 AM41 °FRain. Mostly cloudy.10 mph87%30.02 "Hg5 mi
8:15 AM41 °FLight rain. More clouds than sun.9 mph93%30.01 "Hg5 mi
7:55 AM39 °FRain. Mostly cloudy.7 mph93%30.00 "Hg7 mi
7:35 AM39 °FLight rain. Mostly cloudy.No wind93%30.01 "Hg0 mi
7:15 AM39 °FRain. Mostly cloudy.No wind93%30.00 "Hg0 mi
6:55 AM39 °FRain. Low clouds.No wind93%29.99 "Hg1 mi
6:35 AM41 °FRain. Mostly cloudy.5 mph87%29.98 "Hg1 mi
6:15 AM39 °FLight rain. Overcast.5 mph93%29.97 "Hg7 mi
5:55 AM39 °FRain. Mostly cloudy.15 mph93%29.97 "Hg7 mi
5:35 AM43 °FRain. Low clouds.9 mph100%29.96 "Hg5 mi
5:15 AM45 °FLight rain. Low clouds.6 mph93%29.96 "Hg1 mi
4:55 AM45 °FLight rain. Low clouds.18 mph93%29.94 "Hg1 mi
4:35 AM45 °FLight rain. Low clouds.14 mph93%29.94 "Hg1 mi
4:15 AM45 °FLight rain. Low clouds.14 mph93%29.94 "Hg1 mi
3:55 AM45 °FRain. Low clouds.12 mph93%29.93 "Hg1 mi
3:35 AM45 °FLight rain. Low clouds.14 mph93%29.93 "Hg2 mi
3:15 AM45 °FLight rain. Low clouds.13 mph93%29.94 "Hg1 mi
2:55 AM45 °FRain. Low clouds.15 mph93%29.94 "Hg1 mi
2:35 AM45 °FLight rain. Low clouds.21 mph93%29.93 "Hg10 mi
2:15 AM45 °FRain. Low clouds.17 mph93%29.93 "Hg5 mi
1:55 AM43 °FLight rain. Mostly cloudy.7 mph93%29.94 "Hg4 mi
1:35 AM43 °FLight rain. Mostly cloudy.No wind93%29.94 "Hg7 mi
1:15 AM43 °FHeavy rain. Mostly cloudy.10 mph93%29.95 "Hg4 mi
12:55 AM43 °FRain. Mostly cloudy.No wind93%29.95 "Hg7 mi
12:35 AM43 °FRain. Mostly cloudy.No wind93%29.95 "Hg7 mi
12:15 AM43 °FRain. Mostly cloudy.3 mph93%29.95 "Hg10 mi
11:55 PM
Sat, Feb 28
43 °FRain. Mostly cloudy.12 mph93%29.95 "Hg10 mi
11:35 PM43 °FLow clouds.12 mph93%29.95 "Hg10 mi
11:15 PM43 °FMostly cloudy.7 mph93%29.95 "Hg10 mi
10:55 PM43 °FLight rain. Mostly cloudy.13 mph93%29.94 "Hg10 mi
10:15 PM45 °FPartly cloudy.16 mph87%29.93 "Hg10 mi
9:55 PM45 °FPartly cloudy.14 mph87%29.93 "Hg10 mi
9:35 PM45 °FPassing clouds.6 mph81%29.93 "Hg10 mi
9:15 PM45 °FPartly cloudy.8 mph81%29.92 "Hg10 mi
8:55 PM46 °FOvercast.14 mph76%29.91 "Hg10 mi
8:15 PM46 °FPassing clouds.10 mph71%29.89 "Hg10 mi
7:55 PM46 °FPassing clouds.17 mph71%29.89 "Hg10 mi
7:35 PM46 °FPassing clouds.14 mph71%29.89 "Hg10 mi
7:15 PM46 °FPassing clouds.17 mph71%29.88 "Hg10 mi
6:55 PM46 °FPassing clouds.13 mph71%29.88 "Hg10 mi
6:35 PM46 °FPassing clouds.16 mph76%29.87 "Hg10 mi
6:15 PM46 °FScattered clouds.16 mph76%29.86 "Hg10 mi
5:55 PM46 °FMostly cloudy.15 mph82%29.86 "Hg10 mi
5:15 PM45 °FCloudy.15 mph87%29.85 "Hg10 mi
4:55 PM45 °FLight rain. Cloudy.14 mph87%29.84 "Hg7 mi
4:35 PM46 °FMore clouds than sun.13 mph82%29.84 "Hg10 mi
4:15 PM46 °FBroken clouds.18 mph82%29.84 "Hg10 mi
3:55 PM46 °FBroken clouds.17 mph82%29.83 "Hg10 mi
3:35 PM46 °FBroken clouds.18 mph82%29.82 "Hg10 mi
3:15 PM46 °FBroken clouds.15 mph82%29.81 "Hg10 mi
2:55 PM45 °FLight rain. Cloudy.13 mph87%29.82 "Hg10 mi
2:15 PM48 °FCloudy.21 mph71%29.81 "Hg10 mi
1:55 PM46 °FMore clouds than sun.23 mph76%29.81 "Hg10 mi
1:15 PM48 °FLight rain. Cloudy.14 mph66%29.81 "Hg10 mi
12:55 PM48 °FLight rain. Cloudy.24 mph66%29.81 "Hg10 mi
12:35 PM50 °FCloudy.20 mph58%29.82 "Hg10 mi
12:15 PM48 °FMore clouds than sun.13 mph58%29.83 "Hg10 mi
Weather by CustomWeather, © 2015

See weather overviewHow to use our weather pages